Home   Weather   Egypt   Cairo   Past weeks
Flag for Egypt

Past Weather in Cairo, Egypt — Yesterday and Last 2 Weeks

Currently: 66 °F. Sunny. (Weather station: Cairo Airport, Egypt). See more current weather

Past Weather in Cairo — Graph

°F

Cairo Temperature Yesterday

Maximum temperature yesterday: 70 °F (at 2:00 pm)
Minimum temperature yesterday: 54 °F (at 4:30 am)
Average temperature yesterday: 61 °F

High & Low Weather Summary for the Past Weeks

 TemperatureHumidityPressure
High75 °F (Feb 12, 1:30 pm)88% (Feb 9, 5:30 am)30.24 "Hg (Feb 9, 5:30 am)
Low54 °F (Feb 9, 5:30 am)15% (Feb 12, 7:00 pm)29.74 "Hg (Feb 13, 1:30 pm)
Average62 °F56%30.05 "Hg
* Reported Feb 8 3:00 pm — Feb 23 3:00 pm, Cairo. Weather by CustomWeather, © 2024

Note: Actual official high and low records may vary slightly from our data, if they occured in-between our weather recording intervals... More about our weather records

Cairo Weather History for the Previous 24 Hours

Scroll right to see more
 ConditionsComfort  
Time TempWeatherWind HumidityBarometerVisibility
3:00 pm
Fri, Feb 23
66 °FSunny.13 mph52%30.04 "Hg10 mi
2:30 pm66 °FSunny.13 mph52%30.04 "Hg10 mi
2:00 pm66 °FSunny.15 mph52%30.04 "Hg10 mi
1:30 pm66 °FSunny.16 mph56%30.07 "Hg10 mi
1:00 pm66 °FSunny.14 mph56%30.07 "Hg10 mi
12:30 pm64 °FSunny.15 mph60%30.09 "Hg10 mi
12:00 pm64 °FSunny.14 mph60%30.09 "Hg10 mi
11:30 am64 °FSunny.16 mph60%30.09 "Hg10 mi
11:00 am63 °FSunny.15 mph64%30.09 "Hg10 mi
10:30 am63 °FSunny.15 mph64%30.12 "Hg10 mi
10:00 am61 °FSunny.13 mph68%30.12 "Hg10 mi
9:30 am59 °FSunny.12 mph72%30.12 "Hg10 mi
9:00 am59 °FSunny.10 mph72%30.12 "Hg10 mi
8:30 am57 °FSunny.12 mph77%30.12 "Hg10 mi
8:00 am57 °FSunny.8 mph72%30.12 "Hg10 mi
7:30 am57 °FSunny.8 mph72%30.09 "Hg10 mi
7:00 am57 °FSunny.8 mph72%30.09 "Hg10 mi
6:30 am57 °FSunny.10 mph72%30.07 "Hg10 mi
6:00 am57 °FClear.8 mph72%30.09 "Hg10 mi
5:30 am57 °FClear.8 mph72%30.09 "Hg10 mi
5:00 am57 °FClear.8 mph72%30.09 "Hg10 mi
4:30 am57 °FClear.7 mph72%30.09 "Hg10 mi
4:00 am57 °FClear.7 mph72%30.09 "Hg10 mi
3:30 am57 °FClear.7 mph72%30.09 "Hg10 mi
3:00 am57 °FClear.5 mph72%30.09 "Hg10 mi
1:30 am59 °FClear.10 mph68%30.09 "Hg10 mi
1:00 am59 °FClear.10 mph68%30.09 "Hg10 mi
12:30 am59 °FClear.9 mph68%30.09 "Hg10 mi
12:00 am59 °FClear.9 mph68%30.09 "Hg10 mi
11:30 pm
Thu, Feb 22
59 °FClear.9 mph68%30.12 "Hg10 mi
11:00 pm59 °FClear.10 mph68%30.09 "Hg10 mi
10:30 pm59 °FClear.12 mph68%30.12 "Hg10 mi
10:00 pm61 °FClear.7 mph63%30.12 "Hg10 mi
9:30 pm61 °FClear.13 mph63%30.12 "Hg10 mi
9:00 pm61 °FClear.13 mph63%30.12 "Hg10 mi
8:30 pm61 °FClear.14 mph63%30.12 "Hg10 mi
8:00 pm63 °FClear.14 mph59%30.12 "Hg10 mi
7:30 pm63 °FClear.14 mph59%30.12 "Hg10 mi
7:00 pm64 °FClear.18 mph52%30.09 "Hg10 mi
6:30 pm64 °FClear.15 mph52%30.09 "Hg10 mi
6:00 pm66 °FClear.15 mph49%30.09 "Hg10 mi
5:00 pm68 °FSunny.18 mph46%30.07 "Hg10 mi
4:30 pm70 °FSunny.13 mph40%30.07 "Hg10 mi
4:00 pm70 °FSunny.12 mph43%30.07 "Hg10 mi
Weather by CustomWeather, © 2024

See weather overview